Location: Newark
(52.2090°N, 4.1550°W)
Time: 09:22:37
(UTC+00:00)

Explorer 7 - Pass Details

Date: 17 September 2019
Orbit: 485 x 680 km, 50.3° (Epoch: 14 October)

Event Time Altitude Azimuth Distance (km) Brightness Sun altitude
Exits shadow 03:18:26 67° 221° (SW) 732 7.1 -22.7°
Maximum altitude 03:18:52 72° 182° (S) 712 7.1 -22.7°
Drops below altitude 10° 03:23:46 10° 99° (E) 2,120 10.4 -22.1°
Sets 03:26:09 0° 97° (E) 3,033 11.3 -21.8°
